Tracking 27172 objects as of 2-Apr-2023
HD Live streaming from Space Station
objects crossing your sky now

SL-16 DEB

Track SL-16 DEB now!
10-day predictions


NORAD ID: 22574
Int'l Code: 1992-093HW
Perigee: 775.5 km
Apogee: 975.2 km
Inclination: 71.1 °
Period: 102.3 minutes
Semi major axis: 7246 km
RCS: 0.0082 m2 (small)
Launch date: December 25, 1992
Source: Commonwealth of Independent States (former USSR) (CIS)
Launch site: TYURATAM MISSILE AND SPACE COMPLEX (TTMTR)

Note: This is SATELLITE DEBRIS
Your satellite tracking list
Your tracking list is empty




NASA's NSSDC Master Catalog

Two Line Element Set (TLE):
1 22574U 92093HW  23088.90837249  .00003563  00000-0  19651-2 0  9997
2 22574  71.0877 140.8728 0137809 130.4893  41.9175 14.07425092535316
Source of the keplerian elements: AFSPC